Location: Seattle
(47.6064°N, 122.3308°W)
Time: 01:56:08
(UTC-08:00)

A-11 Canister half - Pass Details

Date: 02 December 2020
Orbit: 1524 x 1684 km, 47.3° (Epoch: 21 January)

Event Time Altitude Azimuth Distance (km) Brightness Sun altitude
Rises 05:35:51 0° 236° (SW) 4,929 - -19.9°
Exits shadow 05:38:21 - 234° (SW) 4,154 10.9 -19.5°
Reaches altitude 10° 05:39:02 10° 234° (SW) 3,944 10.8 -19.4°
Maximum altitude 05:49:04 67° 154° (SSE) 1,790 9.4 -17.7°
Drops below altitude 10° 05:58:55 10° 75° (ENE) 3,888 12.0 -16.1°
Sets 06:02:02 0° 73° (ENE) 4,857 12.6 -15.6°
